Ceredo, WV

5:52 PM EDT on September 25, 2016 (GMT -0400)
Tri-State / Ferguson

Weather History for KHTS - October, 2011

Change the Weather History Date:

Sunday, October 2, 2011

  Actual Average Record
Temperature  
Mean Temperature 50 °F 61 °F  
Max Temperature 60 °F 73 °F 92 °F (1953)
Min Temperature 40 °F 50 °F 31 °F (1946)
Degree Days  
Heating Degree Days 15 5  
Month to date heating degree days 36 10  
Since 1 July heating degree days 91 68  
Cooling Degree Days 0 2  
Month to date cooling degree days 0 4  
Year to date cooling degree days 1237 1115  
Moisture  
Dew Point 37 °F    
Average Humidity 65    
Maximum Humidity 92    
Minimum Humidity 37    
Precipitation  
Precipitation 0.01 in 0.09 in 1.34 in (1911)
Month to date precipitation 0.11 0.17  
Year to date precipitation 48.33 33.20  
Snow  
Snow 0.00 in - - ()
Month to date snowfall 0.0  
Since 1 September snowfall 0.0  
Snow Depth 0.00 in    
Sea Level Pressure  
Sea Level Pressure 30.09 in    
Wind  
Wind Speed 7 mph (WNW)    
Max Wind Speed 15 mph    
Max Gust Speed 22 mph    
Visibility 10 miles    
Events      
T = Trace of Precipitation, MM = Missing Value Source: NWS Daily Summary

Daily Weather History Graph

Daily Weather History Graph

Search for Another Location

Airport or City:

Trip Planner

Search our weather history database for the weather conditions in past years. The results will help you decide how hot, cold, wet, or windy it might be!

Date:

Astronomy

Oct. 02, 2011 Rise Set
Actual Time 7:26 AM EDT 7:11 PM EDT
Civil Twilight 7:00 AM EDT 7:38 PM EDT
Nautical Twilight 6:29 AM EDT 8:08 PM EDT
Astronomical Twilight 5:58 AM EDT 8:39 PM EDT
Moon 1:27 PM EDT (10/2) 11:13 PM EDT (10/2)
Length of Visible Light 12h 38m
Length of Day
11h 45m
Waxing Crescent, 34% of the Moon is Illuminated
Oct 2
Waxing Crescent
Oct 3
First Quarter
Oct 11
Full
Oct 19
Last Quarter
Oct 26
New

Hourly Weather History & Observations

Time (EDT) Temp. Windchill Dew Point Humidity Pressure Visibility Wind Dir Wind Speed Gust Speed Precip Events Conditions
12:51 AM 44.1 °F 40.8 °F 39.9 °F 85% 30.12 in 10.0 mi WNW 5.8 mph - N/A   Scattered Clouds
1:51 AM 43.0 °F 38.2 °F 39.9 °F 89% 30.11 in 10.0 mi WNW 8.1 mph - N/A   Partly Cloudy
2:51 AM 42.1 °F 37.7 °F 39.0 °F 89% 30.10 in 10.0 mi WNW 6.9 mph - N/A   Clear
3:51 AM 42.1 °F 38.4 °F 37.9 °F 85% 30.09 in 10.0 mi WNW 5.8 mph - N/A   Clear
4:51 AM 42.1 °F 38.4 °F 37.9 °F 85% 30.10 in 10.0 mi WNW 5.8 mph - N/A   Mostly Cloudy
5:51 AM 41.0 °F 38.0 °F 37.9 °F 89% 30.10 in 10.0 mi WNW 4.6 mph - N/A   Clear
6:51 AM 41.0 °F 37.1 °F 37.9 °F 89% 30.11 in 10.0 mi WNW 5.8 mph - N/A   Clear
7:51 AM 39.9 °F 36.7 °F 37.0 °F 89% 30.12 in 10.0 mi West 4.6 mph - N/A   Clear
8:51 AM 43.0 °F 38.2 °F 37.9 °F 82% 30.14 in 10.0 mi NW 8.1 mph - N/A   Clear
9:51 AM 46.9 °F - 39.0 °F 74% 30.14 in 10.0 mi NNW 9.2 mph - 0.01 in   Clear
10:51 AM 48.9 °F - 37.9 °F 66% 30.15 in 10.0 mi NNW 13.8 mph 21.9 mph N/A   Mostly Cloudy
11:51 AM 53.1 °F - 39.0 °F 59% 30.13 in 10.0 mi NW 9.2 mph 16.1 mph N/A   Scattered Clouds
12:51 PM 54.0 °F - 37.9 °F 55% 30.11 in 10.0 mi NW 10.4 mph 18.4 mph N/A   Scattered Clouds
1:51 PM 55.9 °F - 37.0 °F 49% 30.09 in 10.0 mi Variable 5.8 mph 19.6 mph N/A   Scattered Clouds
2:51 PM 55.9 °F - 36.0 °F 47% 30.06 in 10.0 mi WNW 8.1 mph 18.4 mph N/A   Scattered Clouds
3:51 PM 59.0 °F - 35.1 °F 41% 30.03 in 10.0 mi WNW 11.5 mph 17.3 mph N/A   Clear
4:51 PM 59.0 °F - 34.0 °F 39% 30.03 in 10.0 mi WNW 11.5 mph 20.7 mph N/A   Mostly Cloudy
5:51 PM 57.0 °F - 34.0 °F 42% 30.04 in 10.0 mi WNW 6.9 mph - N/A   Clear
6:51 PM 55.0 °F - 32.0 °F 42% 30.04 in 10.0 mi NW 5.8 mph - N/A   Clear
7:51 PM 53.1 °F - 34.0 °F 48% 30.04 in 10.0 mi WSW 4.6 mph - N/A   Clear
8:51 PM 50.0 °F - 37.9 °F 63% 30.04 in 10.0 mi SSW 5.8 mph - N/A   Mostly Cloudy
9:51 PM 50.0 °F - 39.0 °F 66% 30.05 in 10.0 mi SW 4.6 mph - N/A   Overcast
10:51 PM 51.1 °F - 37.9 °F 61% 30.05 in 10.0 mi West 3.5 mph - N/A   Overcast
11:51 PM 51.8 °F - 37.4 °F 58% 30.05 in 10.0 mi WNW 3.5 mph - N/A   Overcast